Location: Columbia
(38.9520°N, 92.3340°W)
Time: 06:24:26
(UTC-05:00)

SJ-11-01 - Visible Passes

Search period start: 29 April 2017 00:00
Search period end: 09 May 2017 00:00
Orbit: 684 x 702 km, 98.1° (Epoch: 27 April)

Date Brightness Start Highest point End Pass type
(mag) Time Alt. Az. Time Alt. Az. Time Alt. Az.
29 Apr 4.6 20:55:33 11° SE 20:59:53 48° ENE 21:04:23 10° N visible
29 Apr 6.8 22:34:56 10° SW 22:37:42 16° W 22:40:29 10° NW visible
30 Apr 4.6 21:35:53 15° S 21:39:45 63° WSW 21:44:24 10° NNW visible
01 May 5.1 20:38:09 10° SE 20:42:17 32° ENE 20:46:25 10° N visible
01 May 6.3 22:16:13 10° SSW 22:19:51 24° W 22:23:36 10° NW visible
02 May 4.2 21:17:51 13° SSE 21:22:03 84° ENE 21:26:44 10° NNW visible
03 May 5.6 21:58:11 12° SSW 22:02:03 36° W 22:06:21 10° NNW visible
04 May 4.5 20:59:52 10° SSE 21:04:24 54° ENE 21:08:57 10° N visible
04 May 6.9 22:39:53 10° WSW 22:42:16 14° W 22:44:39 10° WNW visible
05 May 4.8 21:40:09 12° S 21:44:17 56° W 21:48:53 10° NNW visible
06 May 5.0 20:42:33 10° SE 20:46:47 35° ENE 20:51:02 10° N visible
06 May 6.4 22:20:53 10° SW 22:24:25 21° W 22:27:58 10° NW visible
07 May 4.3 21:22:07 11° SSE 21:26:34 87° WSW 21:31:16 10° NNW visible
08 May 5.8 22:02:27 10° SSW 22:06:35 32° W 22:10:47 10° NNW visible
